Location: Austin
(30.3000°N, 97.7500°W)
Time: 12:24:46
(UTC-05:00)

Okean 3 Rocket - Pass Details

Date: 26 May 2023
Orbit: 614 x 642 km, 82.5° (Epoch: 31 May)

Event Time Altitude Azimuth Distance (km) Brightness Sun altitude
Rises 21:00:04 0° 358° (N) 2,945 7.5 -7.6°
Reaches altitude 10° 21:02:20 10° 2° (N) 2,030 6.6 -8.0°
Maximum altitude 21:06:48 63° 83° (E) 712 3.7 -8.8°
Drops below altitude 10° 21:11:12 10° 164° (SSE) 2,003 5.7 -9.6°
Enters shadow 21:12:35 - 167° (SSE) 2,558 6.3 -9.9°
